Location: Mahannah Oil Field
(37.4664°N, 96.6003°W)
Time: 01:38:57
(UTC+00:00)

Tiros 1 despin weight - Pass Details

Date: 01 February 2021
Orbit: 593 x 642 km, 48.2° (Epoch: 25 February)

Event Time Altitude Azimuth Distance (km) Brightness Sun altitude
Rises 17:03:51 0° 232° (SW) 2,924 ? 31.1°
Reaches altitude 10° 17:06:11 10° 231° (SW) 2,014 ? 31.3°
Maximum altitude 17:10:50 82° 146° (SSE) 639 ? 31.7°
Drops below altitude 10° 17:15:26 10° 57° (ENE) 1,996 ? 32.1°
Sets 17:17:44 0° 57° (ENE) 2,896 ? 32.3°
